LOCATION_NAME,SAMPLE COLLECTION TIME,DOSE EQUIVALENT RATE (nSv/h),GAMMA COUNT RATE R02 (CPM),GAMMA COUNT RATE R03 (CPM),GAMMA COUNT RATE R04 (CPM),GAMMA COUNT RATE R05 (CPM),GAMMA COUNT RATE R06 (CPM),GAMMA COUNT RATE R07 (CPM),GAMMA COUNT RATE R08 (CPM),GAMMA COUNT RATE R09 (CPM),STATUS
TN: KNOXVILLE,01/14/2010 11:48:00,,2426.00,1567.00,402.00,257.00,123.00,150.00,92.00,45.00,APPROVED
TN: KNOXVILLE,01/17/2010 02:30:00,,2270.00,1418.00,372.00,219.00,113.00,139.00,85.00,41.00,APPROVED
TN: KNOXVILLE,01/25/2010 03:19:00,,2326.00,1484.00,392.00,248.00,119.00,151.00,92.00,47.00,APPROVED
TN: KNOXVILLE,01/29/2010 01:33:00,,2099.00,1250.00,334.00,185.00,100.00,116.00,77.00,35.00,APPROVED
TN: KNOXVILLE,02/06/2010 11:09:00,,2339.00,1461.00,381.00,228.00,118.00,144.00,86.00,44.00,APPROVED
TN: KNOXVILLE,03/01/2010 18:58:00,,2119.00,1167.00,322.00,154.00,93.00,108.00,66.00,31.00,APPROVED
TN: KNOXVILLE,03/17/2010 01:02:00,,2166.00,1306.00,350.00,187.00,101.00,120.00,77.00,33.00,APPROVED
TN: KNOXVILLE,03/19/2010 19:24:00,,1758.00,1017.00,294.00,150.00,90.00,100.00,71.00,32.00,APPROVED
TN: KNOXVILLE,03/19/2010 20:25:00,,1803.00,1041.00,301.00,153.00,91.00,103.00,70.00,32.00,APPROVED
TN: KNOXVILLE,03/19/2010 21:25:00,,1802.00,1048.00,301.00,155.00,92.00,105.00,72.00,33.00,APPROVED
TN: KNOXVILLE,03/19/2010 23:25:00,,1839.00,1066.00,306.00,156.00,93.00,103.00,71.00,33.00,APPROVED
TN: KNOXVILLE,03/20/2010 00:25:00,,1905.00,1090.00,304.00,161.00,92.00,104.00,72.00,32.00,APPROVED
TN: KNOXVILLE,03/20/2010 01:26:00,,2022.00,1144.00,311.00,163.00,95.00,107.00,70.00,32.00,APPROVED
TN: KNOXVILLE,03/20/2010 02:26:00,,2090.00,1172.00,320.00,161.00,96.00,104.00,71.00,31.00,APPROVED
TN: KNOXVILLE,03/20/2010 03:26:00,,2118.00,1190.00,325.00,166.00,97.00,105.00,72.00,33.00,APPROVED
TN: KNOXVILLE,03/20/2010 04:26:00,,2150.00,1211.00,328.00,168.00,95.00,109.00,72.00,33.00,APPROVED
TN: KNOXVILLE,03/20/2010 05:26:00,,2172.00,1227.00,332.00,170.00,97.00,110.00,71.00,34.00,APPROVED
TN: KNOXVILLE,03/20/2010 06:27:00,,2195.00,1259.00,340.00,170.00,99.00,112.00,70.00,35.00,APPROVED
TN: KNOXVILLE,03/20/2010 07:27:00,,2232.00,1272.00,343.00,175.00,101.00,118.00,70.00,33.00,APPROVED
TN: KNOXVILLE,03/20/2010 08:27:00,,2244.00,1288.00,348.00,175.00,101.00,119.00,70.00,34.00,APPROVED
TN: KNOXVILLE,03/20/2010 09:27:00,,2283.00,1302.00,356.00,178.00,104.00,121.00,70.00,34.00,APPROVED
TN: KNOXVILLE,03/20/2010 10:27:00,,2301.00,1316.00,360.00,175.00,103.00,122.00,68.00,33.00,APPROVED
TN: KNOXVILLE,03/20/2010 11:28:00,,2320.00,1339.00,367.00,181.00,106.00,127.00,69.00,34.00,APPROVED
TN: KNOXVILLE,03/20/2010 12:28:00,,2344.00,1358.00,373.00,185.00,104.00,130.00,71.00,34.00,APPROVED
TN: KNOXVILLE,03/20/2010 13:28:00,,2375.00,1399.00,388.00,194.00,109.00,134.00,72.00,35.00,APPROVED
TN: KNOXVILLE,03/20/2010 14:28:00,,2337.00,1368.00,379.00,196.00,109.00,132.00,78.00,36.00,APPROVED
TN: KNOXVILLE,03/20/2010 15:28:00,,2216.00,1306.00,364.00,192.00,107.00,126.00,79.00,35.00,APPROVED
TN: KNOXVILLE,03/20/2010 16:29:00,,2087.00,1237.00,346.00,188.00,102.00,120.00,79.00,35.00,APPROVED
TN: KNOXVILLE,03/20/2010 17:29:00,,1942.00,1162.00,325.00,176.00,101.00,112.00,77.00,35.00,APPROVED
TN: KNOXVILLE,03/20/2010 18:29:00,,1890.00,1125.00,320.00,169.00,96.00,108.00,74.00,34.00,APPROVED
TN: KNOXVILLE,03/20/2010 19:29:00,,1865.00,1106.00,320.00,167.00,98.00,110.00,73.00,34.00,APPROVED
TN: KNOXVILLE,03/20/2010 20:29:00,,1832.00,1081.00,313.00,166.00,96.00,109.00,71.00,35.00,APPROVED
TN: KNOXVILLE,03/20/2010 21:30:00,,1824.00,1069.00,312.00,162.00,95.00,105.00,73.00,34.00,APPROVED
TN: KNOXVILLE,03/20/2010 22:30:00,,1828.00,1073.00,307.00,159.00,94.00,106.00,73.00,34.00,APPROVED
TN: KNOXVILLE,03/20/2010 23:30:00,,1878.00,1098.00,311.00,159.00,97.00,108.00,73.00,34.00,APPROVED
TN: KNOXVILLE,03/21/2010 00:30:00,,1932.00,1122.00,319.00,162.00,95.00,105.00,72.00,33.00,APPROVED
TN: KNOXVILLE,03/21/2010 01:30:00,,1985.00,1143.00,321.00,162.00,97.00,106.00,72.00,32.00,APPROVED
TN: KNOXVILLE,03/21/2010 02:31:00,,2029.00,1166.00,322.00,165.00,95.00,107.00,72.00,35.00,APPROVED
TN: KNOXVILLE,03/21/2010 03:31:00,,2069.00,1200.00,328.00,168.00,99.00,108.00,72.00,34.00,APPROVED
TN: KNOXVILLE,03/21/2010 04:31:00,,2117.00,1221.00,334.00,175.00,97.00,112.00,75.00,33.00,APPROVED
TN: KNOXVILLE,03/21/2010 05:31:00,,2141.00,1252.00,334.00,175.00,99.00,114.00,73.00,33.00,APPROVED
TN: KNOXVILLE,03/21/2010 06:31:00,,2188.00,1270.00,341.00,179.00,104.00,115.00,77.00,33.00,APPROVED
TN: KNOXVILLE,03/21/2010 07:32:00,,2231.00,1315.00,352.00,186.00,104.00,121.00,78.00,34.00,APPROVED
TN: KNOXVILLE,03/21/2010 08:32:00,,2270.00,1350.00,367.00,194.00,107.00,126.00,77.00,35.00,APPROVED
TN: KNOXVILLE,03/21/2010 09:32:00,,2293.00,1374.00,373.00,201.00,108.00,126.00,78.00,35.00,APPROVED
TN: KNOXVILLE,03/21/2010 10:32:00,,2315.00,1387.00,377.00,201.00,110.00,130.00,81.00,38.00,APPROVED
TN: KNOXVILLE,03/21/2010 11:32:00,,2328.00,1404.00,385.00,202.00,110.00,135.00,81.00,38.00,APPROVED
TN: KNOXVILLE,03/21/2010 12:33:00,,2347.00,1411.00,382.00,204.00,111.00,133.00,83.00,38.00,APPROVED
TN: KNOXVILLE,03/21/2010 13:33:00,,2339.00,1411.00,384.00,211.00,112.00,133.00,83.00,37.00,APPROVED
TN: KNOXVILLE,03/21/2010 14:33:00,,2313.00,1381.00,376.00,206.00,112.00,132.00,83.00,36.00,APPROVED
TN: KNOXVILLE,03/21/2010 15:33:00,,2252.00,1346.00,366.00,199.00,109.00,125.00,81.00,36.00,APPROVED
TN: KNOXVILLE,03/21/2010 16:33:00,,2265.00,1355.00,370.00,199.00,107.00,130.00,82.00,37.00,APPROVED
TN: KNOXVILLE,03/21/2010 17:34:00,,2223.00,1316.00,360.00,194.00,107.00,124.00,80.00,36.00,APPROVED
TN: KNOXVILLE,03/21/2010 18:34:00,,2196.00,1287.00,357.00,189.00,104.00,119.00,80.00,36.00,APPROVED
TN: KNOXVILLE,03/21/2010 19:34:00,,2142.00,1256.00,340.00,182.00,103.00,116.00,77.00,35.00,APPROVED
TN: KNOXVILLE,03/21/2010 20:34:00,,2123.00,1242.00,345.00,179.00,101.00,115.00,76.00,37.00,APPROVED
TN: KNOXVILLE,03/21/2010 21:34:00,,2056.00,1195.00,326.00,172.00,98.00,112.00,75.00,34.00,APPROVED
TN: KNOXVILLE,03/21/2010 22:35:00,,2017.00,1163.00,322.00,162.00,99.00,107.00,72.00,33.00,APPROVED
TN: KNOXVILLE,03/21/2010 23:35:00,,2013.00,1156.00,316.00,163.00,96.00,105.00,70.00,33.00,APPROVED
TN: KNOXVILLE,03/22/2010 00:35:00,,2005.00,1156.00,319.00,163.00,96.00,105.00,72.00,34.00,APPROVED
TN: KNOXVILLE,03/22/2010 01:35:00,,2047.00,1178.00,327.00,168.00,95.00,109.00,72.00,33.00,APPROVED
TN: KNOXVILLE,03/22/2010 02:35:00,,2524.00,1571.00,404.00,230.00,118.00,139.00,85.00,37.00,APPROVED
TN: KNOXVILLE,03/22/2010 03:03:00,,2793.00,1758.00,458.00,264.00,132.00,165.00,97.00,42.00,APPROVED
TN: KNOXVILLE,03/22/2010 14:49:00,,2129.00,1251.00,332.00,173.00,95.00,109.00,72.00,31.00,APPROVED
TN: KNOXVILLE,03/22/2010 15:49:00,,2181.00,1283.00,337.00,179.00,100.00,114.00,72.00,31.00,APPROVED
TN: KNOXVILLE,03/22/2010 16:49:00,,2242.00,1356.00,357.00,197.00,101.00,119.00,74.00,33.00,APPROVED
TN: KNOXVILLE,03/22/2010 17:49:00,,2325.00,1426.00,379.00,211.00,108.00,129.00,82.00,35.00,APPROVED
TN: KNOXVILLE,03/22/2010 18:49:00,,2341.00,1446.00,377.00,215.00,113.00,132.00,81.00,36.00,APPROVED
TN: KNOXVILLE,03/22/2010 19:50:00,,2258.00,1367.00,362.00,202.00,105.00,129.00,76.00,35.00,APPROVED
TN: KNOXVILLE,03/22/2010 20:50:00,,2192.00,1313.00,347.00,189.00,102.00,117.00,76.00,32.00,APPROVED
TN: KNOXVILLE,03/22/2010 21:50:00,,2188.00,1312.00,348.00,183.00,100.00,120.00,75.00,31.00,APPROVED
TN: KNOXVILLE,03/22/2010 22:50:00,,2178.00,1308.00,344.00,183.00,99.00,121.00,74.00,31.00,APPROVED
TN: KNOXVILLE,03/22/2010 23:50:00,,2188.00,1302.00,342.00,183.00,101.00,115.00,73.00,33.00,APPROVED
TN: KNOXVILLE,03/23/2010 00:51:00,,2194.00,1303.00,342.00,185.00,99.00,115.00,73.00,32.00,APPROVED
TN: KNOXVILLE,03/23/2010 01:51:00,,2200.00,1316.00,347.00,187.00,98.00,119.00,75.00,33.00,APPROVED
TN: KNOXVILLE,03/23/2010 02:51:00,,2202.00,1316.00,347.00,183.00,99.00,119.00,75.00,31.00,APPROVED
TN: KNOXVILLE,03/23/2010 03:51:00,,2207.00,1316.00,347.00,186.00,102.00,116.00,73.00,32.00,APPROVED
TN: KNOXVILLE,03/23/2010 04:51:00,,2222.00,1318.00,346.00,184.00,101.00,119.00,75.00,32.00,APPROVED
TN: KNOXVILLE,03/23/2010 05:52:00,,2224.00,1330.00,351.00,191.00,102.00,118.00,73.00,33.00,APPROVED
TN: KNOXVILLE,03/23/2010 06:52:00,,2247.00,1338.00,349.00,190.00,104.00,119.00,76.00,33.00,APPROVED
TN: KNOXVILLE,03/23/2010 07:52:00,,2245.00,1343.00,356.00,196.00,102.00,118.00,76.00,32.00,APPROVED
TN: KNOXVILLE,03/23/2010 08:52:00,,2248.00,1343.00,355.00,197.00,106.00,122.00,76.00,34.00,APPROVED
TN: KNOXVILLE,03/23/2010 09:52:00,,2253.00,1358.00,355.00,201.00,105.00,122.00,79.00,34.00,APPROVED
TN: KNOXVILLE,03/23/2010 10:53:00,,2259.00,1360.00,360.00,199.00,105.00,121.00,75.00,35.00,APPROVED
TN: KNOXVILLE,03/23/2010 11:53:00,,2299.00,1421.00,368.00,214.00,110.00,131.00,79.00,36.00,APPROVED
TN: KNOXVILLE,03/23/2010 12:53:00,,2293.00,1400.00,370.00,209.00,108.00,127.00,79.00,36.00,APPROVED
TN: KNOXVILLE,03/23/2010 13:53:00,,2253.00,1376.00,364.00,203.00,106.00,127.00,77.00,35.00,APPROVED
TN: KNOXVILLE,03/23/2010 14:53:00,,2241.00,1357.00,358.00,198.00,104.00,123.00,76.00,33.00,APPROVED
TN: KNOXVILLE,03/23/2010 15:54:00,,2226.00,1344.00,361.00,193.00,103.00,122.00,78.00,35.00,APPROVED
TN: KNOXVILLE,03/23/2010 16:54:00,,2177.00,1331.00,354.00,187.00,104.00,123.00,75.00,34.00,APPROVED
TN: KNOXVILLE,03/23/2010 17:54:00,,2115.00,1295.00,343.00,188.00,98.00,119.00,74.00,34.00,APPROVED
TN: KNOXVILLE,03/23/2010 18:54:00,,2042.00,1248.00,339.00,181.00,98.00,120.00,76.00,33.00,APPROVED
TN: KNOXVILLE,03/23/2010 19:54:00,,2019.00,1224.00,336.00,181.00,96.00,119.00,74.00,33.00,APPROVED
TN: KNOXVILLE,03/23/2010 20:55:00,,1987.00,1207.00,326.00,177.00,99.00,117.00,75.00,33.00,APPROVED
TN: KNOXVILLE,03/23/2010 21:55:00,,1985.00,1208.00,324.00,177.00,97.00,116.00,74.00,32.00,APPROVED
TN: KNOXVILLE,03/23/2010 22:55:00,,1991.00,1206.00,328.00,180.00,96.00,115.00,74.00,33.00,APPROVED
TN: KNOXVILLE,03/23/2010 23:55:00,,2014.00,1221.00,327.00,176.00,98.00,118.00,74.00,32.00,APPROVED
TN: KNOXVILLE,03/24/2010 00:55:00,,2086.00,1263.00,338.00,183.00,98.00,117.00,77.00,33.00,APPROVED
TN: KNOXVILLE,03/24/2010 01:55:00,,2133.00,1275.00,340.00,183.00,97.00,118.00,75.00,33.00,APPROVED
TN: KNOXVILLE,03/24/2010 02:56:00,,2161.00,1295.00,347.00,184.00,100.00,118.00,74.00,32.00,APPROVED
TN: KNOXVILLE,03/24/2010 03:56:00,,2180.00,1306.00,347.00,182.00,98.00,118.00,75.00,32.00,APPROVED
TN: KNOXVILLE,03/24/2010 04:56:00,,2181.00,1318.00,346.00,185.00,98.00,122.00,77.00,33.00,APPROVED
TN: KNOXVILLE,03/24/2010 05:56:00,,2194.00,1327.00,346.00,190.00,103.00,120.00,76.00,33.00,APPROVED
TN: KNOXVILLE,03/24/2010 06:56:00,,2215.00,1341.00,351.00,191.00,103.00,121.00,77.00,34.00,APPROVED
TN: KNOXVILLE,03/24/2010 07:57:00,,2246.00,1365.00,357.00,197.00,103.00,121.00,79.00,36.00,APPROVED
TN: KNOXVILLE,03/24/2010 08:57:00,,2245.00,1381.00,357.00,201.00,104.00,125.00,81.00,35.00,APPROVED
TN: KNOXVILLE,03/24/2010 09:57:00,,2279.00,1405.00,367.00,206.00,106.00,127.00,79.00,36.00,APPROVED
TN: KNOXVILLE,03/24/2010 10:57:00,,2300.00,1413.00,366.00,208.00,107.00,129.00,82.00,36.00,APPROVED
TN: KNOXVILLE,03/24/2010 11:57:00,,2302.00,1428.00,370.00,207.00,107.00,127.00,80.00,36.00,APPROVED
TN: KNOXVILLE,03/24/2010 12:58:00,,2336.00,1443.00,370.00,216.00,111.00,130.00,82.00,35.00,APPROVED
TN: KNOXVILLE,03/24/2010 13:58:00,,2351.00,1457.00,383.00,220.00,110.00,135.00,82.00,38.00,APPROVED
TN: KNOXVILLE,03/24/2010 14:58:00,,2294.00,1439.00,378.00,213.00,111.00,134.00,85.00,39.00,APPROVED
TN: KNOXVILLE,03/24/2010 15:58:00,,2147.00,1345.00,358.00,207.00,106.00,129.00,81.00,36.00,APPROVED
TN: KNOXVILLE,03/24/2010 16:58:00,,2027.00,1256.00,340.00,192.00,102.00,122.00,76.00,35.00,APPROVED
TN: KNOXVILLE,03/24/2010 17:59:00,,1942.00,1192.00,323.00,181.00,97.00,117.00,75.00,33.00,APPROVED
TN: KNOXVILLE,03/24/2010 18:59:00,,1866.00,1126.00,312.00,171.00,95.00,116.00,72.00,34.00,APPROVED
TN: KNOXVILLE,03/24/2010 19:59:00,,1812.00,1075.00,309.00,160.00,96.00,106.00,73.00,34.00,APPROVED
TN: KNOXVILLE,03/24/2010 20:59:00,,1830.00,1074.00,309.00,161.00,96.00,107.00,74.00,34.00,APPROVED
TN: KNOXVILLE,03/24/2010 21:59:00,,1850.00,1086.00,311.00,163.00,97.00,108.00,75.00,33.00,APPROVED
TN: KNOXVILLE,03/24/2010 23:00:00,,1864.00,1093.00,313.00,165.00,97.00,108.00,72.00,33.00,APPROVED
TN: KNOXVILLE,03/25/2010 00:00:00,,1915.00,1118.00,315.00,166.00,97.00,107.00,74.00,34.00,APPROVED
TN: KNOXVILLE,03/25/2010 01:00:00,,1992.00,1152.00,319.00,170.00,97.00,106.00,73.00,35.00,APPROVED
TN: KNOXVILLE,03/25/2010 02:00:00,,2061.00,1181.00,324.00,171.00,98.00,107.00,73.00,33.00,APPROVED
TN: KNOXVILLE,03/25/2010 03:00:00,,2105.00,1207.00,326.00,172.00,100.00,110.00,74.00,33.00,APPROVED
TN: KNOXVILLE,03/25/2010 04:01:00,,2143.00,1234.00,328.00,172.00,99.00,109.00,73.00,33.00,APPROVED
TN: KNOXVILLE,03/25/2010 05:01:00,,2173.00,1259.00,339.00,182.00,100.00,113.00,75.00,34.00,APPROVED
TN: KNOXVILLE,03/25/2010 06:01:00,,2229.00,1291.00,347.00,183.00,101.00,119.00,76.00,34.00,APPROVED
TN: KNOXVILLE,03/25/2010 07:01:00,,2263.00,1319.00,356.00,188.00,103.00,119.00,78.00,34.00,APPROVED
TN: KNOXVILLE,03/25/2010 08:01:00,,2280.00,1330.00,356.00,188.00,105.00,120.00,80.00,35.00,APPROVED
TN: KNOXVILLE,03/25/2010 09:02:00,,2285.00,1349.00,363.00,193.00,107.00,128.00,78.00,36.00,APPROVED
TN: KNOXVILLE,03/25/2010 10:02:00,,2284.00,1348.00,364.00,191.00,105.00,126.00,78.00,34.00,APPROVED
TN: KNOXVILLE,03/25/2010 11:02:00,,2304.00,1344.00,369.00,189.00,106.00,126.00,81.00,35.00,APPROVED
TN: KNOXVILLE,03/25/2010 12:02:00,,2308.00,1382.00,377.00,202.00,110.00,130.00,81.00,36.00,APPROVED
TN: KNOXVILLE,03/25/2010 13:02:00,,2431.00,1487.00,397.00,221.00,117.00,140.00,85.00,37.00,APPROVED
TN: KNOXVILLE,03/25/2010 14:02:00,,2457.00,1496.00,406.00,229.00,116.00,147.00,88.00,39.00,APPROVED
TN: KNOXVILLE,03/25/2010 15:03:00,,2352.00,1411.00,388.00,213.00,110.00,136.00,84.00,38.00,APPROVED
TN: KNOXVILLE,03/25/2010 16:03:00,,2233.00,1312.00,364.00,192.00,105.00,122.00,77.00,34.00,APPROVED
TN: KNOXVILLE,03/25/2010 17:03:00,,2299.00,1368.00,371.00,201.00,111.00,128.00,80.00,35.00,APPROVED
TN: KNOXVILLE,03/25/2010 18:03:00,,2323.00,1393.00,386.00,210.00,112.00,130.00,85.00,35.00,APPROVED
TN: KNOXVILLE,03/25/2010 19:03:00,,2257.00,1337.00,366.00,198.00,109.00,124.00,81.00,36.00,APPROVED
TN: KNOXVILLE,03/25/2010 20:04:00,,2174.00,1270.00,352.00,181.00,102.00,120.00,76.00,35.00,APPROVED
TN: KNOXVILLE,03/25/2010 21:04:00,,2191.00,1274.00,351.00,185.00,104.00,117.00,78.00,35.00,APPROVED
TN: KNOXVILLE,03/25/2010 22:04:00,,2249.00,1323.00,367.00,193.00,104.00,124.00,80.00,34.00,APPROVED
TN: KNOXVILLE,03/25/2010 23:04:00,,2237.00,1300.00,353.00,190.00,103.00,121.00,78.00,34.00,APPROVED
TN: KNOXVILLE,03/26/2010 00:04:00,,2120.00,1204.00,328.00,171.00,99.00,110.00,72.00,33.00,APPROVED
TN: KNOXVILLE,03/26/2010 01:05:00,,2110.00,1191.00,327.00,167.00,96.00,108.00,71.00,33.00,APPROVED
TN: KNOXVILLE,03/26/2010 02:05:00,,2210.00,1281.00,345.00,179.00,101.00,118.00,76.00,34.00,APPROVED
TN: KNOXVILLE,03/26/2010 03:05:00,,2355.00,1392.00,368.00,199.00,107.00,126.00,78.00,35.00,APPROVED
TN: KNOXVILLE,03/26/2010 03:07:00,,2676.00,1643.00,410.00,255.00,121.00,139.00,93.00,41.00,APPROVED
TN: KNOXVILLE,04/05/2010 14:06:00,,2255.00,1387.00,366.00,199.00,103.00,130.00,79.00,35.00,APPROVED
TN: KNOXVILLE,04/05/2010 15:06:00,,2087.00,1307.00,362.00,200.00,104.00,132.00,81.00,35.00,APPROVED
TN: KNOXVILLE,04/05/2010 16:07:00,,1965.00,1224.00,342.00,195.00,104.00,127.00,80.00,35.00,APPROVED
TN: KNOXVILLE,04/05/2010 17:07:00,,1887.00,1159.00,327.00,186.00,103.00,120.00,79.00,35.00,APPROVED
TN: KNOXVILLE,04/05/2010 18:07:00,,1775.00,1066.00,315.00,170.00,98.00,113.00,76.00,35.00,APPROVED
TN: KNOXVILLE,04/05/2010 19:07:00,,1773.00,1053.00,310.00,166.00,95.00,111.00,74.00,36.00,APPROVED
TN: KNOXVILLE,04/05/2010 20:07:00,,1787.00,1056.00,307.00,168.00,98.00,110.00,75.00,35.00,APPROVED
TN: KNOXVILLE,04/05/2010 21:07:00,,1780.00,1061.00,310.00,167.00,98.00,111.00,74.00,35.00,APPROVED
TN: KNOXVILLE,04/05/2010 22:08:00,,1761.00,1056.00,307.00,166.00,96.00,112.00,73.00,33.00,APPROVED
TN: KNOXVILLE,04/05/2010 23:08:00,,1770.00,1058.00,306.00,169.00,97.00,110.00,75.00,34.00,APPROVED
TN: KNOXVILLE,04/06/2010 00:08:00,,1816.00,1092.00,309.00,167.00,96.00,111.00,73.00,34.00,APPROVED
TN: KNOXVILLE,04/06/2010 01:08:00,,1908.00,1124.00,314.00,171.00,97.00,111.00,76.00,34.00,APPROVED
TN: KNOXVILLE,04/06/2010 02:08:00,,1969.00,1160.00,322.00,172.00,100.00,109.00,75.00,36.00,APPROVED
TN: KNOXVILLE,04/06/2010 03:09:00,,2002.00,1167.00,320.00,172.00,98.00,110.00,75.00,34.00,APPROVED
TN: KNOXVILLE,04/06/2010 04:09:00,,2007.00,1170.00,321.00,170.00,98.00,110.00,76.00,33.00,APPROVED
TN: KNOXVILLE,04/06/2010 05:09:00,,2065.00,1208.00,328.00,176.00,99.00,115.00,75.00,36.00,APPROVED
TN: KNOXVILLE,04/06/2010 06:09:00,,2029.00,1197.00,329.00,179.00,102.00,114.00,77.00,34.00,APPROVED
TN: KNOXVILLE,04/06/2010 07:09:00,,2038.00,1196.00,333.00,178.00,102.00,112.00,76.00,33.00,APPROVED
TN: KNOXVILLE,04/06/2010 08:10:00,,2031.00,1199.00,331.00,179.00,101.00,112.00,75.00,34.00,APPROVED
TN: KNOXVILLE,04/06/2010 09:10:00,,2039.00,1206.00,336.00,178.00,100.00,115.00,77.00,34.00,APPROVED
TN: KNOXVILLE,04/06/2010 10:10:00,,2069.00,1221.00,331.00,182.00,101.00,115.00,76.00,34.00,APPROVED
TN: KNOXVILLE,04/06/2010 11:10:00,,2111.00,1234.00,335.00,179.00,102.00,113.00,78.00,34.00,APPROVED
TN: KNOXVILLE,04/06/2010 12:10:00,,2131.00,1249.00,341.00,184.00,102.00,116.00,78.00,33.00,APPROVED
TN: KNOXVILLE,04/06/2010 13:11:00,,2108.00,1245.00,338.00,183.00,104.00,118.00,76.00,35.00,APPROVED
TN: KNOXVILLE,04/06/2010 14:11:00,,1974.00,1175.00,327.00,177.00,101.00,115.00,76.00,35.00,APPROVED
TN: KNOXVILLE,04/06/2010 15:11:00,,1895.00,1125.00,321.00,170.00,101.00,111.00,76.00,35.00,APPROVED
TN: KNOXVILLE,04/06/2010 16:11:00,,1816.00,1079.00,313.00,167.00,98.00,108.00,73.00,34.00,APPROVED
TN: KNOXVILLE,04/06/2010 17:11:00,,1756.00,1056.00,307.00,161.00,95.00,105.00,72.00,34.00,APPROVED
TN: KNOXVILLE,04/06/2010 18:12:00,,1707.00,1023.00,304.00,161.00,97.00,105.00,73.00,34.00,APPROVED
TN: KNOXVILLE,04/06/2010 19:12:00,,1695.00,1017.00,303.00,157.00,94.00,107.00,71.00,34.00,APPROVED
TN: KNOXVILLE,04/06/2010 20:12:00,,1748.00,1044.00,307.00,161.00,95.00,109.00,71.00,33.00,APPROVED
TN: KNOXVILLE,04/06/2010 21:12:00,,1774.00,1056.00,306.00,161.00,97.00,110.00,72.00,33.00,APPROVED
TN: KNOXVILLE,04/06/2010 22:12:00,,1764.00,1054.00,307.00,167.00,98.00,108.00,74.00,34.00,APPROVED
TN: KNOXVILLE,04/06/2010 23:13:00,,1779.00,1069.00,310.00,162.00,97.00,109.00,74.00,33.00,APPROVED
TN: KNOXVILLE,04/07/2010 00:13:00,,1835.00,1086.00,316.00,164.00,96.00,111.00,75.00,34.00,APPROVED
TN: KNOXVILLE,04/07/2010 01:13:00,,1917.00,1119.00,316.00,170.00,99.00,107.00,75.00,36.00,APPROVED
TN: KNOXVILLE,04/07/2010 02:13:00,,1958.00,1147.00,323.00,174.00,96.00,107.00,73.00,35.00,APPROVED
TN: KNOXVILLE,04/07/2010 03:13:00,,2000.00,1183.00,319.00,173.00,100.00,115.00,75.00,36.00,APPROVED
TN: KNOXVILLE,04/07/2010 04:14:00,,2024.00,1190.00,326.00,179.00,98.00,114.00,78.00,36.00,APPROVED
TN: KNOXVILLE,04/07/2010 05:14:00,,2022.00,1192.00,329.00,175.00,100.00,112.00,75.00,35.00,APPROVED
TN: KNOXVILLE,04/07/2010 06:14:00,,2020.00,1191.00,330.00,176.00,100.00,113.00,75.00,35.00,APPROVED
TN: KNOXVILLE,04/07/2010 07:14:00,,2041.00,1186.00,329.00,177.00,99.00,112.00,73.00,35.00,APPROVED
TN: KNOXVILLE,04/07/2010 08:14:00,,2055.00,1200.00,328.00,171.00,100.00,113.00,77.00,34.00,APPROVED
TN: KNOXVILLE,04/07/2010 09:15:00,,2019.00,1177.00,327.00,172.00,99.00,110.00,77.00,35.00,APPROVED
TN: KNOXVILLE,04/07/2010 10:15:00,,2020.00,1177.00,325.00,172.00,97.00,112.00,76.00,34.00,APPROVED
TN: KNOXVILLE,04/07/2010 11:15:00,,2027.00,1172.00,327.00,173.00,98.00,110.00,74.00,35.00,APPROVED
TN: KNOXVILLE,04/07/2010 12:15:00,,2037.00,1184.00,327.00,172.00,99.00,112.00,74.00,33.00,APPROVED
TN: KNOXVILLE,04/07/2010 13:15:00,,2016.00,1169.00,325.00,170.00,99.00,110.00,74.00,33.00,APPROVED
TN: KNOXVILLE,04/07/2010 14:16:00,,1955.00,1134.00,316.00,164.00,99.00,108.00,71.00,32.00,APPROVED
TN: KNOXVILLE,04/07/2010 15:16:00,,1888.00,1101.00,318.00,162.00,93.00,106.00,73.00,34.00,APPROVED
TN: KNOXVILLE,04/07/2010 16:16:00,,1853.00,1080.00,312.00,162.00,96.00,104.00,73.00,34.00,APPROVED
TN: KNOXVILLE,04/07/2010 17:16:00,,1823.00,1066.00,306.00,159.00,94.00,106.00,71.00,33.00,APPROVED
TN: KNOXVILLE,04/07/2010 18:16:00,,1777.00,1051.00,309.00,159.00,96.00,106.00,74.00,33.00,APPROVED
TN: KNOXVILLE,04/07/2010 19:17:00,,1718.00,1031.00,302.00,159.00,95.00,107.00,73.00,33.00,APPROVED
TN: KNOXVILLE,04/07/2010 20:17:00,,1717.00,1025.00,303.00,159.00,94.00,107.00,73.00,34.00,APPROVED
TN: KNOXVILLE,04/07/2010 21:17:00,,1722.00,1023.00,305.00,162.00,93.00,106.00,75.00,33.00,APPROVED
TN: KNOXVILLE,04/07/2010 22:17:00,,1713.00,1023.00,306.00,160.00,94.00,105.00,75.00,34.00,APPROVED
TN: KNOXVILLE,04/07/2010 23:17:00,,1751.00,1041.00,309.00,159.00,95.00,107.00,73.00,33.00,APPROVED
TN: KNOXVILLE,04/08/2010 00:18:00,,1791.00,1061.00,314.00,159.00,95.00,108.00,76.00,33.00,APPROVED
TN: KNOXVILLE,04/08/2010 01:18:00,,1855.00,1091.00,310.00,166.00,96.00,109.00,74.00,34.00,APPROVED
TN: KNOXVILLE,04/08/2010 02:18:00,,1915.00,1124.00,318.00,162.00,96.00,108.00,76.00,33.00,APPROVED
TN: KNOXVILLE,04/08/2010 03:18:00,,1944.00,1148.00,320.00,171.00,99.00,110.00,75.00,34.00,APPROVED
TN: KNOXVILLE,04/08/2010 04:18:00,,1961.00,1146.00,324.00,166.00,100.00,109.00,75.00,34.00,APPROVED
TN: KNOXVILLE,04/08/2010 05:19:00,,1972.00,1144.00,319.00,168.00,99.00,108.00,73.00,33.00,APPROVED
TN: KNOXVILLE,04/08/2010 06:19:00,,1963.00,1145.00,324.00,165.00,99.00,111.00,74.00,33.00,APPROVED
TN: KNOXVILLE,04/08/2010 07:19:00,,1950.00,1137.00,320.00,167.00,98.00,108.00,73.00,33.00,APPROVED
TN: KNOXVILLE,04/08/2010 08:19:00,,1943.00,1139.00,324.00,167.00,97.00,112.00,73.00,35.00,APPROVED
TN: KNOXVILLE,04/08/2010 09:19:00,,1931.00,1135.00,324.00,168.00,98.00,110.00,73.00,32.00,APPROVED
TN: KNOXVILLE,04/08/2010 10:20:00,,1943.00,1140.00,319.00,169.00,95.00,108.00,75.00,34.00,APPROVED
TN: KNOXVILLE,04/08/2010 11:20:00,,1938.00,1123.00,318.00,165.00,97.00,108.00,74.00,34.00,APPROVED
TN: KNOXVILLE,04/08/2010 12:04:00,,1937.00,1127.00,319.00,164.00,96.00,104.00,71.00,33.00,APPROVED
TN: KNOXVILLE,04/08/2010 13:19:00,,2012.00,1164.00,324.00,170.00,98.00,108.00,72.00,33.00,APPROVED
TN: KNOXVILLE,04/08/2010 13:58:00,,2299.00,1400.00,366.00,208.00,110.00,129.00,82.00,36.00,APPROVED
TN: KNOXVILLE,04/13/2010 14:10:00,,2444.00,1523.00,402.00,223.00,110.00,141.00,85.00,37.00,APPROVED
TN: KNOXVILLE,04/13/2010 15:10:00,,2263.00,1436.00,387.00,223.00,112.00,142.00,88.00,41.00,APPROVED
TN: KNOXVILLE,04/13/2010 16:11:00,,2033.00,1289.00,352.00,202.00,106.00,132.00,82.00,35.00,APPROVED
TN: KNOXVILLE,04/13/2010 17:11:00,,1947.00,1223.00,337.00,197.00,105.00,127.00,80.00,36.00,APPROVED
TN: KNOXVILLE,04/13/2010 18:11:00,,1876.00,1152.00,323.00,182.00,104.00,122.00,79.00,36.00,APPROVED
TN: KNOXVILLE,04/13/2010 19:05:00,,1761.00,1064.00,309.00,166.00,97.00,110.00,76.00,35.00,APPROVED
TN: KNOXVILLE,04/16/2010 14:16:00,,2084.00,1245.00,339.00,184.00,104.00,114.00,76.00,35.00,APPROVED
TN: KNOXVILLE,04/16/2010 15:16:00,,1981.00,1165.00,330.00,179.00,102.00,116.00,79.00,36.00,APPROVED
TN: KNOXVILLE,04/16/2010 16:16:00,,1919.00,1135.00,324.00,179.00,99.00,115.00,76.00,35.00,APPROVED
TN: KNOXVILLE,04/16/2010 17:16:00,,1809.00,1086.00,318.00,171.00,101.00,110.00,77.00,35.00,APPROVED
TN: KNOXVILLE,04/16/2010 18:17:00,,1773.00,1061.00,313.00,169.00,99.00,114.00,75.00,35.00,APPROVED
TN: KNOXVILLE,04/16/2010 19:17:00,,1758.00,1054.00,311.00,168.00,95.00,109.00,73.00,36.00,APPROVED
TN: KNOXVILLE,04/16/2010 20:17:00,,1793.00,1077.00,311.00,168.00,96.00,110.00,75.00,35.00,APPROVED
TN: KNOXVILLE,04/16/2010 21:17:00,,1813.00,1086.00,308.00,169.00,99.00,108.00,73.00,34.00,APPROVED
TN: KNOXVILLE,04/16/2010 22:17:00,,1841.00,1094.00,313.00,171.00,98.00,114.00,75.00,34.00,APPROVED
TN: KNOXVILLE,04/16/2010 23:18:00,,1896.00,1124.00,317.00,172.00,98.00,110.00,75.00,35.00,APPROVED